When you browse on this site, cookies collect data to enhance your experience and personalize the content and advertising you see.
Visit our Privacy Policy to learn more. By continuing to use the site, you agree to this use of cookies and data.
  • In Germany
  • List of Countries
  • For 7 days
  • Water Temperature
  • Weather Map
  • Weather Widgets
  • user-avatar
    Login

    Hourly Weather Gornyy

    Today, 22 October, Tuesday

    Time Temperature Precipitation Wind Pressure Humidity
    00:00 0°C° 0.1 mm 4 mps 748 mmHg 95%
    01:00 +1°C° 0.1 mm 4 mps 748 mmHg 95%
    02:00 +1°C° 0 mm 4 mps 747 mmHg 94%
    03:00 +1°C° 0 mm 5 mps 746 mmHg 93%
    04:00 +3°C° 0 mm 4 mps 746 mmHg 91%
    05:00 +2°C° 0.4 mm 5 mps 745 mmHg 92%
    06:00 +2°C° 0.4 mm 5 mps 744 mmHg 92%
    07:00 +3°C° 0.4 mm 6 mps 743 mmHg 93%
    08:00 +3°C° 0.6 mm 6 mps 743 mmHg 91%
    09:00 +4°C° 0.6 mm 6 mps 742 mmHg 90%
    10:00 +4°C° 0.6 mm 6 mps 742 mmHg 88%
    11:00 +5°C° 0 mm 6 mps 742 mmHg 87%
    12:00 +5°C° 0 mm 6 mps 742 mmHg 87%
    13:00 +7°C° 0 mm 6 mps 742 mmHg 86%
    14:00 +6°C° 0 mm 5 mps 742 mmHg 85%
    15:00 +5°C° 0 mm 5 mps 743 mmHg 85%
    16:00 +4°C° 0 mm 4 mps 743 mmHg 84%
    17:00 +3°C° 0 mm 4 mps 744 mmHg 85%
    18:00 +1°C° 0 mm 4 mps 744 mmHg 85%
    19:00 +2°C° 0 mm 3 mps 744 mmHg 85%
    20:00 +1°C° 0 mm 3 mps 744 mmHg 86%
    21:00 +1°C° 0 mm 3 mps 745 mmHg 87%
    22:00 +1°C° 0 mm 3 mps 745 mmHg 88%
    23:00 0°C° 0 mm 3 mps 745 mmHg 89%

    Tomorrow, 23 October, Wednesday

    Time Temperature Precipitation Wind Pressure Humidity
    00:00 +1°C° 0 mm 2 mps 745 mmHg 90%
    01:00 -1°C° 0 mm 2 mps 745 mmHg 91%
    02:00 -1°C° 0 mm 2 mps 745 mmHg 91%
    03:00 -1°C° 0 mm 2 mps 745 mmHg 91%
    04:00 -1°C° 0 mm 2 mps 746 mmHg 91%
    05:00 -2°C° 0 mm 2 mps 745 mmHg 90%
    06:00 -2°C° 0 mm 2 mps 745 mmHg 89%
    07:00 -2°C° 0 mm 3 mps 745 mmHg 88%
    08:00 -1°C° 0 mm 3 mps 745 mmHg 85%
    09:00 0°C° 0 mm 3 mps 745 mmHg 81%
    10:00 -1°C° 0 mm 4 mps 745 mmHg 78%
    11:00 0°C° 0 mm 4 mps 745 mmHg 75%
    12:00 +1°C° 0 mm 4 mps 745 mmHg 73%
    13:00 +1°C° 0 mm 4 mps 744 mmHg 71%
    14:00 +1°C° 0 mm 4 mps 744 mmHg 74%
    15:00 +1°C° 0 mm 4 mps 743 mmHg 77%
    16:00 0°C° 0 mm 4 mps 743 mmHg 80%
    17:00 0°C° 0 mm 4 mps 743 mmHg 82%
    18:00 0°C° 0 mm 4 mps 742 mmHg 84%
    19:00 0°C° 0 mm 4 mps 742 mmHg 86%
    20:00 +1°C° 0 mm 4 mps 741 mmHg 87%
    21:00 +1°C° 0 mm 4 mps 740 mmHg 88%
    22:00 +2°C° 0 mm 5 mps 740 mmHg 88%
    23:00 +2°C° 0 mm 5 mps 740 mmHg 88%

    Day after tomorrow, 24 October, Thursday

    Time Temperature Precipitation Wind Pressure Humidity
    00:00 +3°C° 0 mm 5 mps 739 mmHg 87%
    01:00 +3°C° 0 mm 5 mps 739 mmHg 86%
    02:00 +5°C° 0.1 mm 5 mps 739 mmHg 87%
    03:00 +5°C° 0.1 mm 5 mps 739 mmHg 88%
    04:00 +5°C° 0.1 mm 5 mps 739 mmHg 89%
    05:00 +5°C° 0 mm 4 mps 740 mmHg 89%
    06:00 +4°C° 0 mm 4 mps 740 mmHg 89%
    07:00 +4°C° 0 mm 4 mps 741 mmHg 88%
    08:00 +4°C° 0 mm 4 mps 742 mmHg 85%
    09:00 +5°C° 0 mm 4 mps 742 mmHg 82%
    10:00 +5°C° 0 mm 5 mps 743 mmHg 78%
    11:00 +5°C° 0 mm 5 mps 743 mmHg 76%
    12:00 +6°C° 0 mm 4 mps 743 mmHg 73%
    13:00 +6°C° 0 mm 4 mps 744 mmHg 71%
    14:00 +5°C° 0 mm 4 mps 744 mmHg 74%
    15:00 +5°C° 0 mm 3 mps 744 mmHg 77%
    16:00 +6°C° 0 mm 2 mps 744 mmHg 80%
    17:00 +5°C° 0 mm 2 mps 745 mmHg 82%
    18:00 +4°C° 0 mm 2 mps 745 mmHg 83%
    19:00 +4°C° 0 mm 2 mps 746 mmHg 85%
    20:00 +3°C° 0 mm 2 mps 746 mmHg 86%
    21:00 +3°C° 0 mm 2 mps 746 mmHg 88%
    22:00 +2°C° 0 mm 2 mps 746 mmHg 89%
    23:00 +1°C° 0 mm 3 mps 746 mmHg 90%

    25 October, Friday

    Time Temperature Precipitation Wind Pressure Humidity
    00:00 +1°C° 0 mm 3 mps 746 mmHg 91%
    01:00 0°C° 0 mm 3 mps 746 mmHg 91%
    02:00 0°C° 0 mm 3 mps 746 mmHg 91%
    03:00 0°C° 0 mm 3 mps 747 mmHg 91%
    04:00 0°C° 0 mm 3 mps 747 mmHg 92%
    05:00 0°C° 0 mm 3 mps 747 mmHg 91%
    06:00 0°C° 0 mm 3 mps 747 mmHg 91%
    07:00 0°C° 0 mm 3 mps 747 mmHg 91%
    08:00 +1°C° 0 mm 3 mps 747 mmHg 88%
    09:00 +1°C° 0 mm 4 mps 747 mmHg 84%
    10:00 +3°C° 0 mm 4 mps 747 mmHg 81%
    11:00 +3°C° 0 mm 4 mps 747 mmHg 80%
    12:00 +4°C° 0 mm 4 mps 747 mmHg 79%
    13:00 +4°C° 0 mm 4 mps 747 mmHg 78%
    14:00 +4°C° 0 mm 4 mps 747 mmHg 81%
    15:00 +3°C° 0 mm 4 mps 747 mmHg 84%
    16:00 +3°C° 0 mm 3 mps 746 mmHg 87%
    17:00 +3°C° 0 mm 3 mps 746 mmHg 87%
    18:00 +3°C° 0 mm 3 mps 746 mmHg 87%
    19:00 +3°C° 0 mm 3 mps 746 mmHg 87%
    20:00 +3°C° 0 mm 3 mps 746 mmHg 87%
    21:00 +4°C° 0 mm 3 mps 746 mmHg 88%
    22:00 +4°C° 0 mm 4 mps 746 mmHg 89%
    23:00 +4°C° 0 mm 4 mps 746 mmHg 88%

    26 October, Saturday

    Time Temperature Precipitation Wind Pressure Humidity
    00:00 +4°C° 0 mm 4 mps 746 mmHg 88%
    01:00 +4°C° 0 mm 4 mps 746 mmHg 88%
    02:00 +4°C° 0 mm 4 mps 747 mmHg 89%
    03:00 +3°C° 0 mm 4 mps 748 mmHg 90%
    04:00 +3°C° 0 mm 3 mps 748 mmHg 91%
    05:00 +3°C° 0 mm 3 mps 748 mmHg 91%
    06:00 +3°C° 0 mm 3 mps 749 mmHg 91%
    07:00 +3°C° 0 mm 3 mps 749 mmHg 91%
    08:00 +4°C° 0 mm 3 mps 749 mmHg 90%
    09:00 +5°C° 0 mm 2 mps 750 mmHg 90%
    10:00 +6°C° 0 mm 2 mps 750 mmHg 89%
    11:00 +5°C° 0 mm 3 mps 750 mmHg 86%
    12:00 +7°C° 0 mm 3 mps 750 mmHg 84%
    13:00 +7°C° 0 mm 3 mps 750 mmHg 81%
    14:00 +7°C° 0 mm 3 mps 750 mmHg 82%
    15:00 +7°C° 0 mm 3 mps 750 mmHg 82%
    16:00 +5°C° 0 mm 3 mps 749 mmHg 83%
    17:00 +6°C° 0 mm 4 mps 749 mmHg 83%
    18:00 +6°C° 0 mm 4 mps 749 mmHg 83%
    19:00 +6°C° 0 mm 5 mps 748 mmHg 84%
    20:00 +6°C° 0 mm 5 mps 748 mmHg 84%
    21:00 +6°C° 0 mm 5 mps 747 mmHg 85%
    22:00 +7°C° 0 mm 5 mps 747 mmHg 86%
    23:00 +7°C° 0 mm 5 mps 746 mmHg 87%

    27 October, Sunday

    Time Temperature Precipitation Wind Pressure Humidity
    00:00 +7°C° 0 mm 5 mps 746 mmHg 87%
    01:00 +7°C° 0 mm 4 mps 745 mmHg 88%
    02:00 +7°C° 0 mm 4 mps 745 mmHg 87%
    03:00 +7°C° 0 mm 4 mps 745 mmHg 86%
    04:00 +7°C° 0 mm 4 mps 745 mmHg 85%
    05:00 +7°C° 0 mm 4 mps 745 mmHg 86%
    06:00 +6°C° 0 mm 4 mps 745 mmHg 87%
    07:00 +6°C° 0 mm 4 mps 744 mmHg 88%
    08:00 +7°C° 0 mm 4 mps 744 mmHg 85%
    09:00 +8°C° 0 mm 4 mps 744 mmHg 81%
    10:00 +9°C° 0 mm 5 mps 744 mmHg 78%
    11:00 +10°C° 0 mm 5 mps 744 mmHg 73%
    12:00 +11°C° 0 mm 6 mps 744 mmHg 68%
    13:00 +13°C° 0 mm 6 mps 743 mmHg 63%
    14:00 +11°C° 0 mm 6 mps 743 mmHg 67%
    15:00 +11°C° 0 mm 6 mps 743 mmHg 70%
    16:00 +10°C° 0 mm 5 mps 742 mmHg 73%
    17:00 +10°C° 0 mm 6 mps 742 mmHg 75%
    18:00 +10°C° 0 mm 6 mps 742 mmHg 77%
    19:00 +9°C° 0 mm 6 mps 741 mmHg 79%
    20:00 +9°C° 0 mm 6 mps 741 mmHg 78%
    21:00 +9°C° 0 mm 6 mps 741 mmHg 78%
    22:00 +8°C° 0 mm 6 mps 741 mmHg 78%
    23:00 +8°C° 0 mm 6 mps 740 mmHg 77%

    28 October, Monday

    Time Temperature Precipitation Wind Pressure Humidity
    00:00 +8°C° 0 mm 6 mps 740 mmHg 76%
    01:00 +8°C° 0 mm 6 mps 739 mmHg 75%
    02:00 +7°C° 0 mm 6 mps 739 mmHg 74%
    03:00 +7°C° 0 mm 6 mps 739 mmHg 73%
    04:00 +7°C° 0 mm 6 mps 738 mmHg 72%
    05:00 +7°C° 0 mm 6 mps 738 mmHg 72%
    06:00 +7°C° 0 mm 6 mps 737 mmHg 71%
    07:00 +7°C° 0 mm 6 mps 737 mmHg 71%
    08:00 +8°C° 0 mm 6 mps 737 mmHg 70%
    09:00 +8°C° 0 mm 6 mps 736 mmHg 68%
    10:00 +9°C° 0 mm 6 mps 736 mmHg 67%
    11:00 +9°C° 0 mm 6 mps 736 mmHg 68%
    12:00 +9°C° 0 mm 6 mps 735 mmHg 69%
    13:00 +9°C° 0 mm 6 mps 735 mmHg 70%
    14:00 +9°C° 0 mm 5 mps 735 mmHg 70%
    15:00 +9°C° 0 mm 5 mps 734 mmHg 71%
    16:00 +9°C° 0 mm 5 mps 734 mmHg 72%
    17:00 +9°C° 0 mm 5 mps 734 mmHg 74%
    18:00 +8°C° 0 mm 5 mps 734 mmHg 76%
    19:00 +8°C° 0 mm 5 mps 734 mmHg 77%
    20:00 +8°C° 0 mm 5 mps 734 mmHg 79%
    21:00 +7°C° 0 mm 5 mps 733 mmHg 81%
    22:00 +7°C° 0 mm 4 mps 733 mmHg 82%
    23:00 +7°C° 0.4 mm 4 mps 733 mmHg 85%
    Show more